Preview of NWS' New Version of Forecast
This preview is not operational and should not be used for support decisions.

Regional Weather Roundup (RWR)

Issued by National Weather Service (NWS)

                            
000
ASUS44 KJAN 200310
RWRMS 

MISSISSIPPI HOURLY WEATHER ROUNDUP
NATIONAL WEATHER SERVICE JACKSON MS
1000 PM CDT THU SEP 19 2019

NOTE: "FAIR: INDICATES FEW OR NO CLOUDS BELOW 12,000 FEET WITH NO
SIGNIFICANT WEATHER AND/OR OBSTRUCTIONS TO VISIBILITY.

MSZ001>002-007>008-010>013-018>021-025>028-034>036-200400-
NORTHWEST MISSISSIPPI
  
CITY           SKY/WX    TMP DP  RH WIND       PRES   REMARKS
BATESVILLE       N/A     75  72  88 CALM      30.05S                  
CLARKSDALE       N/A     75  75 100 SE7       30.07R FOG              
CLEVELAND      CLOUDY    75  75 100 S5        30.05R                  
GREENWOOD      FAIR      80  71  74 S5        30.05R                  
GREENVILLE     FAIR      75  72  90 CALM      30.05R                  
OLIVE BRANCH   PTCLDY    79  70  73 SE5       30.06R                  
OXFORD         FAIR      77  70  78 SE7       30.07F                  
TUNICA           N/A     77  72  83 S9        30.04F                  
WINONA         FAIR      76  72  85 S5        30.07R                  
$$

MSZ003>006-009-014>017-022>024-029>033-037>039-200400-
NORTHEAST MISSISSIPPI
  
CITY           SKY/WX    TMP DP  RH WIND       PRES   REMARKS
ABERDEEN       FAIR      72  54  53 CALM      30.09R                  
COLUMBUS AFB   FAIR      76  71  82 CALM      30.07R                  
CORINTH        FAIR      72  70  94 CALM      30.08S FOG              
GOLDN TRIANGLE FAIR      76  71  85 S5        30.08R                  
STARKVILLE       N/A     73  70  88 CALM      30.09R                  
TUPELO         FAIR      77  70  79 CALM      30.07S                  
$$

MSZ040-058-200400-
CENTRAL MISSISSIPPI
  
CITY           SKY/WX    TMP DP  RH WIND       PRES   REMARKS
JACKSON INTL   FAIR      74  69  85 SE6       30.07R                  
JACKSON HAWKNS FAIR      75  69  81 E3        30.08R                  
MADISON        FAIR      72  72 100 CALM      30.09R                  
MERIDIAN KEY   FAIR      76  72  87 CALM      30.09R                  
MERIDIAN NAS   CLOUDY    76  71  85 CALM      30.09R                  
RAYMOND        FAIR      75  72  88 VRB3      30.06S                  
VICKSBURG VKS  CLEAR     77  72  83 SE5       30.04F                  
$$

MSZ059>079-200400-
SOUTH MISSISSIPPI
  
CITY           SKY/WX    TMP DP  RH WIND       PRES   REMARKS
BROOKHAVEN     FAIR      75  70  83 CALM      30.09R                  
HATTIESBURG    FAIR      74  71  91 E5        30.09R                  
LAUREL         CLEAR     74  72  93 S7        30.09R                  
MCCOMB         FAIR      78  72  81 SE5       30.07S                  
NATCHEZ        FAIR      76  71  85 SE6       30.06R                  
PINE BELT      FAIR      73  72  96 E3        30.10R                  
$$

MSZ080>082-200400-
COASTAL MISSISSIPPI
  
CITY           SKY/WX    TMP DP  RH WIND       PRES   REMARKS
BILOXI         FAIR      80  73  79 SE13      30.06R                  
PASCAGOULA     FAIR      76  72  87 CALM      30.07R                  
GULFPORT       FAIR      81  73  76 SE16      30.05R                  
$$

LAZ007>009-015>016-023>026-200400-
NORTHEAST LOUISIANA
  
CITY           SKY/WX    TMP DP  RH WIND       PRES   REMARKS
BASTROP        FAIR      73  71  91 E3        30.03F                  
TALLULAH/VBURG FAIR      79  69  71 SE6       30.04S                  
VIDALIA        FAIR      78  71  78 S7        30.03R                  
$$